| time (UTC) | temp C | wind direction | speed KPH | gust KPH | rain 1hr cm | rain 24hr cm | rain mn cm | humidity % | barometer mb |
| 20260510202603 | 20 | 255 | 11.3 | 22.5 | 0.00 | 0.46 | 0.00 | 60 | 1012.5 |
| 20260510201624 | 20 | 264 | 6.4 | 19.3 | 0.00 | 0.48 | 0.00 | 62 | 1012.5 |
| 20260510200603 | 21 | 232 | 3.2 | 17.7 | 0.00 | 0.53 | 0.00 | 62 | 1012.3 |
| 20260510195624 | 21 | 270 | 3.2 | 14.5 | 0.00 | 0.53 | 0.00 | 61 | 1012.4 |
| 20260510194603 | 21 | 287 | 0.0 | 16.1 | 0.00 | 0.64 | 0.00 | 63 | 1012.5 |
| 20260510193603 | 21 | 274 | 6.4 | 16.1 | 0.00 | 0.69 | 0.00 | 61 | 1012.7 |
| 20260510192603 | 21 | 213 | 3.2 | 17.7 | 0.00 | 0.71 | 0.00 | 63 | 1012.6 |
| 20260510191624 | 21 | 243 | 8.0 | 16.1 | 0.00 | 0.71 | 0.00 | 64 | 1012.7 |
| 20260510190603 | 21 | 246 | 3.2 | 19.3 | 0.00 | 0.71 | 0.00 | 63 | 1012.6 |
| 20260510185603 | 21 | 236 | 6.4 | 20.9 | 0.00 | 0.71 | 0.00 | 62 | 1012.6 |
| 20260510184603 | 21 | 250 | 3.2 | 19.3 | 0.00 | 0.71 | 0.00 | 62 | 1012.7 |
| 20260510183603 | 22 | 285 | 3.2 | 17.7 | 0.00 | 0.74 | 0.00 | 62 | 1012.8 |
| 20260510182603 | 22 | 246 | 8.0 | 17.7 | 0.00 | 0.74 | 0.00 | 61 | 1012.8 |
| 20260510181604 | 22 | 229 | 6.4 | 16.1 | 0.00 | 0.76 | 0.00 | 63 | 1012.6 |
| 20260510180603 | 22 | 206 | 1.6 | 8.0 | 0.00 | 0.76 | 0.00 | 70 | 1012.5 |
| 20260510175624 | 22 | 201 | 3.2 | 11.3 | 0.00 | 0.76 | 0.00 | 67 | 1012.5 |
| 20260510174603 | 22 | 222 | 0.0 | 9.7 | 0.00 | 0.76 | 0.00 | 70 | 1012.4 |
| 20260510173603 | 21 | 223 | 0.0 | 11.3 | 0.00 | 0.76 | 0.00 | 70 | 1012.3 |
| 20260510172603 | 21 | 223 | 0.0 | 12.9 | 0.00 | 0.76 | 0.00 | 70 | 1012.3 |
| 20260510171602 | 21 | 219 | 0.0 | 6.4 | 0.00 | 0.76 | 0.00 | 73 | 1012.4 |
| 20260510170603 | 21 | 220 | 1.6 | 11.3 | 0.00 | 0.76 | 0.00 | 73 | 1012.5 |
| 20260510165648 | 21 | 226 | 3.2 | 11.3 | 0.00 | 0.76 | 0.00 | 72 | 1012.6 |
| 20260510164603 | 20 | 236 | 1.6 | 14.5 | 0.00 | 0.76 | 0.00 | 78 | 1012.7 |
| 20260510163603 | 20 | 223 | 1.6 | 9.7 | 0.00 | 0.76 | 0.00 | 74 | 1012.8 |
| 20260510162603 | 20 | 225 | 6.4 | 17.7 | 0.00 | 0.76 | 0.00 | 79 | 1012.8 |
| 20260510161603 | 20 | 220 | 3.2 | 14.5 | 0.00 | 0.76 | 0.00 | 76 | 1013.0 |
| 20260510160602 | 20 | 209 | 6.4 | 12.9 | 0.00 | 0.76 | 0.00 | 78 | 1013.0 |
| 20260510155625 | 19 | 206 | 1.6 | 11.3 | 0.00 | 0.76 | 0.00 | 79 | 1012.9 |
| 20260510154603 | 18 | 208 | 0.0 | 6.4 | 0.00 | 0.76 | 0.00 | 78 | 1012.9 |
| 20260510153603 | 18 | 216 | 1.6 | 9.7 | 0.00 | 0.76 | 0.00 | 81 | 1013.1 |
| 20260510152602 | 18 | 227 | 0.0 | 8.0 | 0.00 | 0.76 | 0.00 | 80 | 1013.1 |
| 20260510151603 | 17 | 223 | 0.0 | 8.0 | 0.00 | 0.76 | 0.00 | 80 | 1013.1 |
| 20260510150603 | 17 | 220 | 0.0 | 6.4 | 0.00 | 0.76 | 0.00 | 84 | 1013.1 |
| 20260510145603 | 16 | 221 | 0.0 | 12.9 | 0.00 | 0.76 | 0.00 | 85 | 1013.3 |
| 20260510144603 | 16 | 218 | 1.6 | 8.0 | 0.00 | 0.76 | 0.00 | 89 | 1013.4 |
| 20260510143603 | 15 | 222 | 1.6 | 6.4 | 0.00 | 0.76 | 0.00 | 90 | 1013.3 |
| 20260510142624 | 15 | 203 | 0.0 | 1.6 | 0.00 | 0.76 | 0.00 | 94 | 1013.4 |
| 20260510141603 | 14 | 167 | 0.0 | 8.0 | 0.00 | 0.76 | 0.00 | 96 | 1013.3 |
| 20260510140624 | 13 | 210 | 0.0 | 0.0 | 0.00 | 0.76 | 0.00 | 97 | 1013.3 |
| 20260510135602 | 13 | 210 | 0.0 | 0.0 | 0.00 | 0.76 | 0.00 | 97 | 1013.3 |
| 20260510134603 | 12 | 210 | 0.0 | 0.0 | 0.00 | 0.76 | 0.00 | 98 | 1013.3 |
| 20260510133603 | 12 | 210 | 0.0 | 0.0 | 0.00 | 0.76 | 0.00 | 98 | 1013.3 |
| 20260510132624 | 12 | 210 | 0.0 | 0.0 | 0.00 | 0.76 | 0.00 | 98 | 1013.3 |
| 20260510131602 | 12 | 210 | 0.0 | 0.0 | 0.00 | 0.76 | 0.00 | 97 | 1013.3 |
| 20260510130603 | 12 | 229 | 0.0 | 0.0 | 0.00 | 0.76 | 0.00 | 97 | 1013.0 |
| 20260510125602 | 12 | 229 | 0.0 | 0.0 | 0.00 | 0.76 | 0.00 | 98 | 1012.9 |
| 20260510124603 | 11 | 229 | 0.0 | 0.0 | 0.00 | 0.76 | 0.00 | 98 | 1012.9 |
| 20260510123603 | 11 | 229 | 0.0 | 0.0 | 0.00 | 0.76 | 0.00 | 98 | 1012.9 |
| 20260510122603 | 11 | 229 | 0.0 | 0.0 | 0.00 | 0.76 | 0.00 | 97 | 1012.9 |
| 20260510121603 | 11 | 229 | 0.0 | 0.0 | 0.00 | 0.76 | 0.00 | 97 | 1012.9 |
| 20260510120604 | 11 | 229 | 0.0 | 0.0 | 0.00 | 0.76 | 0.00 | 97 | 1012.8 |
| 20260510115602 | 11 | 229 | 0.0 | 0.0 | 0.00 | 0.76 | 0.00 | 97 | 1012.4 |
| 20260510114603 | 11 | 229 | 0.0 | 0.0 | 0.00 | 0.76 | 0.00 | 97 | 1012.2 |
| 20260510113603 | 11 | 229 | 0.0 | 0.0 | 0.00 | 0.76 | 0.00 | 98 | 1012.4 |
| 20260510112603 | 11 | 229 | 0.0 | 0.0 | 0.00 | 0.76 | 0.00 | 97 | 1012.3 |
| 20260510111603 | 11 | 229 | 0.0 | 0.0 | 0.00 | 0.76 | 0.00 | 98 | 1012.2 |
| 20260510110602 | 10 | 229 | 0.0 | 0.0 | 0.00 | 0.76 | 0.00 | 97 | 1012.1 |
| 20260510105603 | 10 | 229 | 0.0 | 0.0 | 0.00 | 0.76 | 0.00 | 97 | 1012.0 |
| 20260510104602 | 10 | 229 | 0.0 | 0.0 | 0.00 | 0.76 | 0.00 | 97 | 1011.7 |
| 20260510103603 | 10 | 229 | 0.0 | 0.0 | 0.00 | 0.76 | 0.00 | 97 | 1011.7 |
| 20260510102602 | 10 | 229 | 0.0 | 0.0 | 0.00 | 0.76 | 0.00 | 97 | 1011.8 |
| 20260510101603 | 10 | 229 | 0.0 | 0.0 | 0.00 | 0.76 | 0.00 | 97 | 1011.8 |
| 20260510100602 | 10 | 229 | 0.0 | 0.0 | 0.00 | 0.76 | 0.00 | 97 | 1011.8 |
| 20260510095645 | 10 | 229 | 0.0 | 0.0 | 0.00 | 0.76 | 0.00 | 97 | 1011.9 |
| 20260510094624 | 10 | 229 | 0.0 | 0.0 | 0.00 | 0.76 | 0.00 | 97 | 1011.9 |
| 20260510093603 | 10 | 229 | 0.0 | 0.0 | 0.00 | 0.76 | 0.00 | 97 | 1011.8 |
| 20260510092603 | 10 | 229 | 0.0 | 0.0 | 0.00 | 0.76 | 0.00 | 97 | 1011.6 |
| 20260510091603 | 10 | 229 | 0.0 | 0.0 | 0.00 | 0.76 | 0.00 | 97 | 1011.8 |
| 20260510090603 | 10 | 229 | 0.0 | 0.0 | 0.00 | 0.76 | 0.00 | 97 | 1012.0 |
| 20260510085603 | 10 | 229 | 0.0 | 0.0 | 0.00 | 0.76 | 0.00 | 97 | 1011.9 |
| 20260510084603 | 10 | 229 | 0.0 | 0.0 | 0.00 | 0.76 | 0.00 | 97 | 1012.0 |
| 20260510083602 | 10 | 229 | 0.0 | 0.0 | 0.00 | 0.76 | 0.00 | 97 | 1012.1 |
| 20260510082604 | 10 | 229 | 0.0 | 0.0 | 0.00 | 0.76 | 0.00 | 97 | 1012.2 |
| 20260510081604 | 10 | 229 | 0.0 | 0.0 | 0.00 | 0.76 | 0.00 | 97 | 1012.1 |
| 20260510080604 | 10 | 229 | 0.0 | 0.0 | 0.00 | 0.76 | 0.00 | 97 | 1012.1 |
| 20260510075603 | 10 | 229 | 0.0 | 6.4 | 0.00 | 0.76 | 0.00 | 97 | 1011.9 |
| 20260510074625 | 10 | 229 | 0.0 | 0.0 | 0.00 | 0.76 | 0.00 | 97 | 1011.7 |
| 20260510073603 | 10 | 229 | 0.0 | 0.0 | 0.00 | 0.76 | 0.00 | 97 | 1011.2 |
| 20260510072604 | 10 | 229 | 0.0 | 0.0 | 0.00 | 0.76 | 0.00 | 97 | 1011.1 |
| 20260510071604 | 10 | 229 | 0.0 | 0.0 | 0.00 | 0.76 | 0.00 | 97 | 1011.3 |
| 20260510070625 | 10 | 229 | 0.0 | 0.0 | 0.00 | 0.76 | 0.00 | 97 | 1011.3 |
| 20260510065604 | 10 | 229 | 0.0 | 0.0 | 0.00 | 0.76 | 0.00 | 96 | 1011.3 |
| 20260510064604 | 10 | 229 | 0.0 | 0.0 | 0.00 | 0.76 | 0.00 | 97 | 1011.2 |
| 20260510063603 | 10 | 229 | 0.0 | 0.0 | 0.00 | 0.76 | 0.00 | 97 | 1011.3 |
| 20260510062625 | 10 | 229 | 0.0 | 0.0 | 0.00 | 0.76 | 0.00 | 97 | 1011.5 |
| 20260510061604 | 10 | 229 | 0.0 | 0.0 | 0.00 | 0.76 | 0.00 | 97 | 1011.5 |
| 20260510060625 | 10 | 229 | 0.0 | 0.0 | 0.00 | 0.76 | 0.00 | 97 | 1011.4 |
| 20260510055604 | 10 | 229 | 0.0 | 0.0 | 0.00 | 0.76 | 0.00 | 97 | 1011.2 |
| 20260510054604 | 10 | 229 | 0.0 | 0.0 | 0.00 | 0.76 | 0.00 | 97 | 1011.1 |
| 20260510053604 | 10 | 229 | 0.0 | 0.0 | 0.00 | 0.76 | 0.00 | 97 | 1011.2 |
| 20260510052604 | 10 | 229 | 0.0 | 0.0 | 0.00 | 0.76 | 0.00 | 97 | 1011.1 |
| 20260510051604 | 10 | 229 | 0.0 | 0.0 | 0.00 | 0.76 | 0.00 | 97 | 1011.1 |
| 20260510050604 | 10 | 229 | 0.0 | 0.0 | 0.00 | 0.76 | 0.00 | 97 | 1011.2 |
| 20260510045625 | 10 | 229 | 0.0 | 0.0 | 0.00 | 0.76 | 0.00 | 97 | 1011.3 |
| 20260510044603 | 10 | 229 | 0.0 | 0.0 | 0.00 | 0.76 | 0.00 | 97 | 1011.3 |
| 20260510043604 | 10 | 229 | 0.0 | 0.0 | 0.00 | 0.76 | 0.00 | 96 | 1011.4 |
| 20260510042603 | 10 | 229 | 0.0 | 0.0 | 0.00 | 0.76 | 0.00 | 97 | 1011.2 |
| 20260510041604 | 10 | 229 | 0.0 | 0.0 | 0.00 | 0.76 | 0.00 | 96 | 1011.4 |
| 20260510040603 | 10 | 229 | 0.0 | 0.0 | 0.00 | 0.76 | 0.00 | 96 | 1011.4 |
| 20260510035604 | 10 | 229 | 0.0 | 0.0 | 0.00 | 0.76 | 0.76 | 96 | 1011.3 |
| 20260510034604 | 10 | 229 | 0.0 | 0.0 | 0.00 | 0.76 | 0.76 | 96 | 1011.2 |
| 20260510033604 | 10 | 229 | 0.0 | 0.0 | 0.00 | 0.76 | 0.76 | 96 | 1011.2 |
| 20260510032624 | 10 | 229 | 0.0 | 0.0 | 0.00 | 0.76 | 0.76 | 96 | 1011.1 |
| 20260510031604 | 10 | 229 | 0.0 | 0.0 | 0.00 | 0.76 | 0.76 | 96 | 1010.9 |
| 20260510030603 | 10 | 229 | 0.0 | 0.0 | 0.00 | 0.76 | 0.76 | 96 | 1010.8 |
| 20260510025604 | 10 | 229 | 0.0 | 0.0 | 0.00 | 0.76 | 0.76 | 96 | 1011.0 |
| 20260510024646 | 10 | 229 | 0.0 | 0.0 | 0.00 | 0.76 | 0.76 | 96 | 1011.1 |
| 20260510023604 | 10 | 229 | 0.0 | 0.0 | 0.00 | 0.76 | 0.76 | 96 | 1011.2 |
| 20260510022624 | 10 | 229 | 0.0 | 0.0 | 0.00 | 0.76 | 0.76 | 96 | 1011.0 |
| 20260510021604 | 10 | 229 | 0.0 | 0.0 | 0.00 | 0.76 | 0.76 | 96 | 1011.1 |
| 20260510020603 | 10 | 229 | 0.0 | 0.0 | 0.00 | 0.76 | 0.76 | 96 | 1011.0 |
| 20260510015604 | 10 | 229 | 0.0 | 0.0 | 0.00 | 0.76 | 0.76 | 96 | 1011.0 |
| 20260510014603 | 10 | 229 | 0.0 | 0.0 | 0.00 | 0.76 | 0.76 | 96 | 1011.0 |
| 20260510013604 | 10 | 229 | 0.0 | 0.0 | 0.00 | 0.76 | 0.76 | 96 | 1011.2 |
| 20260510012603 | 11 | 229 | 0.0 | 0.0 | 0.00 | 0.76 | 0.76 | 96 | 1010.9 |
| 20260510011604 | 11 | 229 | 0.0 | 0.0 | 0.00 | 0.76 | 0.76 | 96 | 1010.9 |
| 20260510010625 | 11 | 229 | 0.0 | 0.0 | 0.00 | 0.76 | 0.76 | 95 | 1010.7 |
| 20260510005604 | 11 | 229 | 0.0 | 0.0 | 0.00 | 0.76 | 0.76 | 95 | 1010.5 |
| 20260510004624 | 11 | 229 | 0.0 | 0.0 | 0.00 | 0.76 | 0.76 | 95 | 1010.5 |
| 20260510003604 | 11 | 229 | 0.0 | 0.0 | 0.00 | 0.76 | 0.76 | 95 | 1010.5 |
| 20260510002603 | 11 | 229 | 0.0 | 0.0 | 0.00 | 0.76 | 0.76 | 95 | 1010.4 |
| 20260510001604 | 12 | 229 | 0.0 | 0.0 | 0.00 | 0.76 | 0.76 | 95 | 1010.5 |
| 20260510000604 | 12 | 229 | 0.0 | 0.0 | 0.00 | 0.76 | 0.76 | 95 | 1010.3 |
| 20260509235604 | 12 | 229 | 0.0 | 0.0 | 0.00 | 0.76 | 0.76 | 95 | 1010.3 |
| 20260509234604 | 12 | 229 | 0.0 | 0.0 | 0.00 | 0.76 | 0.76 | 95 | 1010.3 |
| 20260509233603 | 12 | 229 | 0.0 | 0.0 | 0.00 | 0.76 | 0.76 | 95 | 1010.2 |
| 20260509232604 | 12 | 229 | 0.0 | 0.0 | 0.00 | 0.76 | 0.76 | 95 | 1010.1 |
| 20260509231604 | 12 | 229 | 0.0 | 0.0 | 0.00 | 0.76 | 0.76 | 95 | 1010.1 |
| 20260509230604 | 12 | 229 | 0.0 | 0.0 | 0.00 | 0.76 | 0.76 | 95 | 1010.0 |
| 20260509225603 | 12 | 229 | 0.0 | 0.0 | 0.00 | 0.76 | 0.76 | 95 | 1010.2 |
| 20260509224604 | 12 | 229 | 0.0 | 0.0 | 0.00 | 0.76 | 0.76 | 96 | 1010.1 |
| 20260509223603 | 12 | 229 | 0.0 | 0.0 | 0.00 | 0.76 | 0.76 | 95 | 1010.3 |
| 20260509222603 | 12 | 229 | 0.0 | 0.0 | 0.00 | 0.76 | 0.76 | 95 | 1010.4 |
| 20260509221603 | 12 | 229 | 0.0 | 8.0 | 0.00 | 0.76 | 0.76 | 95 | 1010.2 |
| 20260509220604 | 12 | 229 | 0.0 | 0.0 | 0.00 | 0.76 | 0.76 | 95 | 1010.4 |
| 20260509215603 | 12 | 229 | 0.0 | 0.0 | 0.20 | 0.76 | 0.76 | 95 | 1010.3 |
| 20260509214603 | 12 | 229 | 0.0 | 0.0 | 0.20 | 0.76 | 0.76 | 95 | 1010.3 |
| 20260509213603 | 12 | 229 | 0.0 | 0.0 | 0.20 | 0.76 | 0.76 | 95 | 1010.6 |
| 20260509212604 | 12 | 229 | 0.0 | 0.0 | 0.15 | 0.71 | 0.71 | 94 | 1010.7 |
| 20260509211604 | 12 | 229 | 0.0 | 0.0 | 0.10 | 0.66 | 0.66 | 94 | 1010.7 |
| 20260509210603 | 12 | 229 | 0.0 | 0.0 | 0.03 | 0.58 | 0.58 | 94 | 1010.5 |
| 20260509205604 | 12 | 229 | 0.0 | 0.0 | 0.30 | 0.53 | 0.53 | 94 | 1010.5 |
| 20260509204604 | 12 | 229 | 0.0 | 1.6 | 0.25 | 0.48 | 0.48 | 94 | 1010.5 |
| 20260509203604 | 12 | 229 | 0.0 | 0.0 | 0.13 | 0.36 | 0.36 | 94 | 1010.6 |